DW8913 Weather Reports


time (UTC)temp
C
wind
direction
speed
KPH
gust
KPH
rain 1hr
cm
rain 24hr
cm
rain mn
cm
humidity
%
barometer
mb
20260903150019 27 142 4.8 14.5 0.00 2.84 2.79 81 1014.4
20260903144554 27 184 3.2 12.9 0.00 2.84 2.79 83 1014.4
20260903143020 26 158 4.8 9.7 0.00 2.84 2.79 87 1014.5
20260903141611 25 159 4.8 9.7 0.00 2.84 2.79 91 1014.6
20260903140038 23 69 1.6 12.9 0.03 2.84 2.79 91 1014.3
20260903134501 23 140 3.2 11.3 0.05 2.84 2.79 92 1014.4
20260903133040 23 194 3.2 11.3 0.05 2.84 2.79 92 1014.6
20260903131510 23 97 0.0 9.7 0.05 2.84 2.79 92 1015.2
20260903130054 23 176 1.6 8.0 0.05 2.82 2.77 93 1014.5
20260903124517 23 48 0.0 0.0 0.03 2.79 2.74 94 1016.1
20260903123106 23 77 0.0 4.8 0.03 2.79 2.74 94 1016.8
20260903121549 23 138 1.6 8.0 0.03 2.79 2.74 94 1016.6
20260903120112 22 155 0.0 3.2 0.00 2.77 2.72 94 1016.8
20260903114543 22 193 0.0 0.0 0.00 2.77 2.72 94 1016.7
20260903113013 22 198 0.0 0.0 0.00 2.77 2.72 94 1016.5
20260903111558 22 189 0.0 0.0 0.03 2.77 2.72 95 1016.8
20260903110033 22 189 0.0 0.0 0.20 2.77 2.72 95 1016.7
20260903104503 22 216 0.0 0.0 0.66 2.77 2.72 94 1017.1
20260903103044 22 224 0.0 0.0 0.69 2.77 2.72 94 1017.1
20260903101513 22 8 0.0 4.8 0.66 2.74 2.69 94 1017.0
20260903100054 22 13 4.8 11.3 0.48 2.57 2.51 94 1017.5
20260903094527 22 233 0.0 6.4 0.03 2.11 2.06 94 1016.6
20260903093108 23 6 0.0 0.0 0.00 2.08 2.03 94 1016.5
20260903091549 23 200 0.0 0.0 0.00 2.08 2.03 94 1016.0
20260903090007 23 322 0.0 0.0 0.18 2.08 2.03 94 1016.1
20260903084549 23 55 0.0 0.0 0.36 2.08 2.03 94 1016.2
20260903083017 23 203 0.0 1.6 0.76 2.08 2.03 94 1015.8
20260903081558 22 183 0.0 1.6 0.81 2.08 2.03 94 1016.1
20260903080026 22 32 0.0 3.2 1.85 1.91 1.85 94 1016.3
20260903074609 22 214 0.0 11.3 1.68 1.73 1.68 94 1016.5
20260903073037 23 233 0.0 8.0 1.27 1.32 1.27 93 1016.7
20260903071613 23 159 3.2 14.5 1.22 1.27 1.22 93 1016.7
20260903070047 24 37 0.0 1.6 0.00 0.05 0.00 92 1017.3
20260903064515 24 158 1.6 3.2 0.00 0.05 0.00 92 1015.8
20260903063101 24 167 0.0 1.6 0.00 0.05 0.00 92 1015.7
20260903061529 24 21 0.0 3.2 0.00 0.05 0.00 92 1015.9
20260903060123 24 153 0.0 0.0 0.00 0.05 0.00 92 1016.0
20260903054533 23 187 0.0 0.0 0.00 0.05 0.00 92 1016.1
20260903053001 23 167 0.0 3.2 0.00 0.05 0.00 92 1016.3
20260903051544 23 193 0.0 1.6 0.00 0.05 0.00 91 1016.2
20260903050018 24 148 0.0 0.0 0.00 0.05 0.00 91 1016.5
20260903044546 24 212 0.0 0.0 0.00 0.05 0.00 91 1016.7
20260903043024 24 151 0.0 0.0 0.00 0.05 0.00 91 1016.7
20260903041558 24 193 0.0 0.0 0.00 0.05 0.00 91 1016.7
20260903040026 24 195 0.0 0.0 0.00 0.05 0.00 91 1017.2
20260903034602 24 214 0.0 1.6 0.00 0.05 0.05 91 1017.0
20260903033033 24 214 0.0 1.6 0.00 0.05 0.05 91 1017.1
20260903031502 24 129 0.0 1.6 0.00 0.05 0.05 91 1017.0
20260903030051 24 32 0.0 4.8 0.00 0.05 0.05 90 1016.6
20260903024522 24 230 0.0 6.4 0.00 0.23 0.05 90 1016.9
20260903023100 23 208 0.0 4.8 0.00 0.23 0.05 90 1017.0
20260903021521 23 356 0.0 6.4 0.00 0.23 0.05 90 1017.0
20260903020058 23 201 1.6 4.8 0.00 0.23 0.05 90 1017.0
20260903014527 23 197 1.6 8.0 0.00 0.23 0.05 90 1017.1
20260903013126 23 358 1.6 6.4 0.00 0.23 0.05 89 1016.9
20260903011555 23 212 0.0 3.2 0.00 0.23 0.05 89 1017.2
20260903010008 23 224 0.0 4.8 0.00 0.23 0.05 89 1017.3
20260903004549 23 196 1.6 8.0 0.00 0.23 0.05 89 1017.3
20260903003015 23 7 0.0 6.4 0.00 0.23 0.05 89 1016.9
20260903001557 23 181 0.0 8.0 0.00 0.23 0.05 89 1016.8
20260903000040 23 219 0.0 8.0 0.00 0.23 0.05 89 1017.2
20260902234508 23 215 0.0 12.9 0.00 0.23 0.05 88 1017.0
20260902233052 23 206 3.2 8.0 0.00 0.23 0.05 89 1016.9
20260902231519 23 233 1.6 8.0 0.00 0.23 0.05 88 1016.8
20260902230108 23 213 1.6 11.3 0.00 0.23 0.05 88 1016.8
20260902224545 24 191 1.6 8.0 0.00 0.23 0.05 88 1017.0
20260902223020 24 228 1.6 6.4 0.00 0.23 0.05 88 1017.0
20260902221552 24 118 1.6 6.4 0.00 0.23 0.05 87 1017.1
20260902220035 24 181 0.0 8.0 0.00 0.23 0.05 87 1017.2
20260902214613 24 214 1.6 6.4 0.00 0.23 0.05 87 1017.4
20260902213034 24 5 1.6 8.0 0.03 0.23 0.05 87 1017.5
20260902211502 23 219 1.6 11.3 0.03 0.23 0.05 87 1017.3
20260902210046 23 213 1.6 8.0 0.03 0.23 0.05 88 1017.2
20260902204514 23 335 1.6 9.7 0.03 0.23 0.05 88 1017.2
20260902203048 23 359 3.2 14.5 0.03 0.20 0.03 88 1016.5
20260902201530 23 268 3.2 9.7 0.03 0.20 0.03 87 1016.9
20260902200057 23 191 1.6 9.7 0.03 0.20 0.03 87 1016.9
20260902194524 24 16 3.2 9.7 0.03 0.20 0.03 86 1017.3
20260902193108 24 64 1.6 6.4 0.00 0.18 0.00 83 1017.0
20260902191542 25 49 0.0 6.4 0.00 0.18 0.00 82 1017.9
20260902190006 25 224 3.2 9.7 0.00 0.18 0.00 80 1018.3
20260902184548 26 82 1.6 8.0 0.00 0.18 0.00 78 1018.6
20260902183020 26 296 1.6 6.4 0.00 0.18 0.00 76 1018.8
20260902181559 26 209 1.6 11.3 0.00 0.18 0.00 77 1018.9
20260902180031 27 239 1.6 11.3 0.00 0.18 0.00 78 1018.9
20260902174603 27 223 3.2 11.3 0.00 0.18 0.00 76 1018.9
20260902173047 27 40 3.2 12.9 0.00 0.18 0.00 76 1018.6
20260902171627 27 203 3.2 11.3 0.00 0.18 0.00 77 1018.5
20260902170044 27 216 3.2 11.3 0.00 0.18 0.00 76 1018.5
20260902164510 27 136 4.8 11.3 0.00 0.18 0.00 76 1018.3
20260902163052 27 194 3.2 9.7 0.00 0.18 0.00 76 1018.1
20260902161521 27 274 1.6 8.0 0.00 0.18 0.00 75 1018.4
20260902160107 27 99 0.0 8.0 0.00 0.18 0.00 76 1018.4
20260902154542 27 20 1.6 8.0 0.00 0.18 0.00 77 1018.3
20260902153112 26 225 3.2 8.0 0.00 0.18 0.00 77 1018.5
20260902151544 26 153 3.2 11.3 0.00 0.18 0.00 81 1018.8